This is the latest recevied weather packets stored in our database for station/object CT4TX-11. If no packets are shown the sender has not sent any weather packets the latest 10 day(s).
| Time | Temp. | Humidity | Pressure | Rain* | Wind** | Luminosity | Snow |
|---|---|---|---|---|---|---|---|
| 1777581300 | 25.56° C | 42% | 1006.2 hPa | - | - | - | - |
| 1777580400 | 25.56° C | 41% | 1006.1 hPa | - | - | - | - |
| 1777579500 | 25.56° C | 40% | 1005.9 hPa | - | - | - | - |
| 1777578600 | 26.11° C | 40% | 1005.8 hPa | - | - | - | - |
| 1777577699 | 25.56° C | 40% | 1005.7 hPa | - | - | - | - |
| 1777576799 | 25.56° C | 40% | 1005.5 hPa | - | - | - | - |
| 1777575899 | 25.56° C | 40% | 1005.5 hPa | - | - | - | - |
| 1777574999 | 27.22° C | 37% | 1005.5 hPa | - | - | - | - |
| 1777574098 | 27.22° C | 38% | 1005.4 hPa | - | - | - | - |
| 1777573198 | 26.67° C | 40% | 1005.3 hPa | - | - | - | - |
| 1777572297 | 25.56° C | 41% | 1005.2 hPa | - | - | - | - |
| 1777571397 | 25.56° C | 40% | 1005.3 hPa | - | - | - | - |
| 1777570497 | 25.56° C | 39% | 1005.3 hPa | - | - | - | - |
| 1777569602 | 26.11° C | 39% | 1005.4 hPa | - | - | - | - |
| 1777568702 | 25.56° C | 39% | 1005.4 hPa | - | - | - | - |
| 1777567801 | 26.11° C | 38% | 1005.4 hPa | - | - | - | - |
| 1777566901 | 26.11° C | 38% | 1005.3 hPa | - | - | - | - |
| 1777566001 | 26.67° C | 37% | 1005.3 hPa | - | - | - | - |
| 1777565100 | 26.67° C | 37% | 1005.2 hPa | - | - | - | - |
| 1777564200 | 26.11° C | 39% | 1005.2 hPa | - | - | - | - |
| 1777563300 | 26.11° C | 39% | 1005.2 hPa | - | - | - | - |
| 1777562399 | 26.11° C | 39% | 1005.2 hPa | - | - | - | - |
| 1777561499 | 26.11° C | 39% | 1005.2 hPa | - | - | - | - |
| 1777560599 | 26.11° C | 39% | 1005.4 hPa | - | - | - | - |
| 1777559699 | 26.11° C | 38% | 1005.5 hPa | - | - | - | - |
* Rain since midnight (hover to see other rain measurements)
** Current wind speed in m/s (hover to see current wind gust speed)